Location: Waco, TX
(31.5480°N, 97.1670°W)
Time: 22:18:17
(UTC-06:00)

ISS - Pass Details

Date: 17 February 2019
Orbit: 403 x 411 km, 51.6° (Epoch: 22 February)

Event Time Altitude Azimuth Distance (km) Brightness Sun altitude
Rises 15:40:28 0° 323° (NW) 2,325 0.0 29.2°
Reaches altitude 10° 15:42:40 10° 333° (NNW) 1,464 -1.0 28.8°
Maximum altitude 15:45:42 34° 41° (NE) 690 -2.9 28.3°
Drops below altitude 10° 15:48:44 10° 108° (ESE) 1,462 -1.2 27.8°
Sets 15:50:55 0° 118° (ESE) 2,321 -0.2 27.4°
